Timestamp[UTC];2m Lufttemperatur [degC] (tas);Stations-Luftdruck [Pa] (ps);relative Luftfeuchtigkeit [%] (hurs);spezifische Luftfeuchtigkeit [kg/kg] (huss);Niederschlagsmenge [mm] (pr);Windgeschwindigkeit in 2m [m/s] (sfcWind);Windrichtung [deg];maximale Windgeschwindigkeit [m/s] (wsgsmax);u-Windkomponente [m/s] (uas);v-Windkomponente [m/s] (vas);Sonneneinstrahlung [W/m2];Blitzrate [n];Blitzentfernung [km];Bodenfeuchte in 5cm Tiefe [vol%];Bodenfeuchte in 15cm Tiefe [vol%];Bodenfeuchte in 30cm Tiefe [vol%];Bodenfeuchte in 60cm Tiefe [vol%];Bodentemperatur in 5cm Tiefe [degC];Bodentemperatur in 15cm Tiefe [degC];Bodentemperatur in 30cm Tiefe [degC];Bodentemperatur in 60cm Tiefe [degC];Matrixpotential in 30cm Tiefe [kPa];Bodenfeuchte aus CRNS [vol%] (mrso);Neutronen Anzahl [N/h]
2023-09-01 00:00:00;14,3;100594;90;0,0091;0,0;1,1;165;1,6;0,28;-1,02;0;0;nan;28,3;26,9;31,5;26,3;15,1;15,8;16,2;16,1;-18,4;32,1;1313
2023-09-01 01:00:00;14,2;100560;92;0,0093;0,39;1,5;170;2,3;0,26;-1,49;0;0;nan;28,4;26,8;31,5;26,3;15,1;15,7;16,1;16,1;-18,4;32,7;1307
2023-09-01 02:00:00;14,2;100553;95;0,0095;0,63;0,9;118;1,4;0,74;-0,4;0;0;nan;28,5;26,8;31,5;26,3;15,1;15,7;16,1;16,1;-18,6;32,9;1305
2023-09-01 03:00:00;14,3;100532;96;0,0097;0,02;1,0;147;1,6;0,5;-0,76;0;0;nan;28,8;26,8;31,5;26,3;15,1;15,6;16,1;16,1;-18,6;33,5;1299
2023-09-01 04:00:00;14,4;100511;96;0,0098;0,0;1,1;134;1,5;0,77;-0,73;1;0;nan;28,8;26,8;31,5;26,3;15,1;15,6;16,0;16,1;-18,6;33,8;1295
2023-09-01 05:00:00;14,6;100512;97;0,01;0,0;1,4;128;2,3;1,08;-0,84;13;0;nan;28,9;26,8;31,5;26,3;15,1;15,6;16,0;16,1;-18,6;34,4;1289
2023-09-01 06:00:00;14,9;100523;97;0,0102;0,1;1,4;139;2,2;0,92;-1,06;32;0;nan;29,0;26,8;31,5;26,3;15,2;15,6;16,0;16,1;-18,6;34,5;1288
2023-09-01 07:00:00;15,0;100520;99;0,0105;5,14;1,8;129;2,8;1,31;-1,05;42;0;nan;29,1;26,8;31,5;26,3;15,3;15,6;15,9;16,1;-18,7;34,4;1289
2023-09-01 08:00:00;15,3;100528;100;0,0108;7,42;1,2;161;2,9;0,25;-0,74;51;0;nan;34,7;27,2;31,5;26,4;15,4;15,6;15,9;16,0;-18,8;35,3;1281
2023-09-01 09:00:00;15,8;100570;100;0,0112;5,55;0,8;105;1,3;0,52;-0,14;74;0;nan;40,7;31,0;31,5;26,6;15,5;15,6;15,9;16,0;-18,8;35,0;1283
2023-09-01 10:00:00;16,7;100560;100;0,0118;3,86;2,0;178;3,0;0,07;-1,73;138;0;nan;41,3;35,6;31,8;26,6;15,8;15,7;15,9;16,0;-18,4;35,9;1274
2023-09-01 11:00:00;17,3;100545;100;0,0123;0,36;2,2;195;3,6;-0,59;-2,14;134;0;nan;40,5;36,6;33,4;26,5;16,2;15,8;15,9;16,0;-15,1;36,9;1266
2023-09-01 12:00:00;16,9;100540;100;0,012;0,73;2,6;230;4,5;-1,93;-1,61;218;0;nan;39,7;36,3;35,0;26,5;16,5;16,0;15,9;16,0;-10,9;37,2;1263
2023-09-01 13:00:00;17,8;100610;99;0,0125;0,02;2,2;279;5,2;-2,12;0,34;384;0;nan;39,3;36,2;35,7;26,5;16,8;16,1;15,9;16,0;-9,6;37,7;1258
2023-09-01 14:00:00;19,8;100650;92;0,0132;0,0;2,0;305;4,2;-1,62;1,12;334;0;nan;38,7;35,8;35,9;26,5;17,3;16,3;15,9;16,0;-9,4;38,5;1251
2023-09-01 15:00:00;20,0;100698;89;0,0129;0,0;1,2;274;2,5;-1,18;0,08;231;0;nan;38,2;35,4;36,0;26,5;17,4;16,5;15,9;16,0;-9,3;38,5;1251
2023-09-01 16:00:00;20,8;100708;82;0,0125;0,0;1,1;3;2,0;0,06;1,06;226;0;nan;37,8;35,0;35,9;26,5;17,6;16,7;16,0;16,0;-9,3;38,8;1249
2023-09-01 17:00:00;20,2;100766;83;0,0122;0,0;0,8;99;1,2;0,58;-0,09;63;0;nan;37,6;34,7;35,9;26,5;17,5;16,8;16,0;16,0;-9,3;39,3;1244
2023-09-01 18:00:00;18,0;100828;93;0,0119;0,0;0,4;234;0,8;-0,2;-0,15;6;0;nan;37,2;34,4;35,8;26,5;17,3;16,9;16,1;16,0;-9,3;40,0;1239
2023-09-01 19:00:00;16,6;100905;95;0,0111;0,0;0,8;173;1,4;0,09;-0,72;0;0;nan;37,0;34,2;35,7;26,5;17,0;16,9;16,2;16,0;-9,4;40,4;1236
2023-09-01 20:00:00;15,8;100950;96;0,0107;0,0;0,6;208;1,0;-0,3;-0,56;0;0;nan;36,8;33,9;35,6;26,5;16,8;16,8;16,2;16,0;-9,4;41,2;1230
2023-09-01 21:00:00;15,6;100982;97;0,0106;0,0;0,6;189;1,0;-0,08;-0,49;0;0;nan;36,6;33,7;35,6;26,6;16,6;16,7;16,2;16,0;-9,4;39,9;1240
2023-09-01 22:00:00;15,4;101005;98;0,0105;0,0;0,8;171;1,2;0,14;-0,81;0;0;nan;36,4;33,5;35,5;26,6;16,4;16,6;16,3;16,0;-9,4;40,4;1236
2023-09-01 23:00:00;14,8;101038;98;0,0102;0,0;0,5;125;0,8;0,15;-0,11;0;0;nan;36,3;33,3;35,4;26,6;16,1;16,5;16,3;16,0;-9,5;40,0;1238
2023-09-02 00:00:00;13,8;101042;99;0,0097;0,0;0,5;177;0,9;0,02;-0,51;0;0;nan;36,2;33,2;35,4;26,6;16,0;16,4;16,3;16,0;-9,5;40,3;1237
2023-09-02 01:00:00;13,8;101055;98;0,0095;0,0;0,6;188;0,8;-0,08;-0,55;0;0;nan;36,1;33,0;35,3;26,7;15,7;16,3;16,3;16,0;-9,6;40,2;1238
2023-09-02 02:00:00;14,5;101075;98;0,01;0,0;0,8;179;1,0;0,01;-0,8;0;0;nan;36,0;32,9;35,3;26,7;15,7;16,2;16,2;16,0;-9,6;40,1;1238
2023-09-02 03:00:00;13,9;101103;98;0,0096;0,0;0,4;170;0,8;0,06;-0,35;0;0;nan;35,8;32,8;35,2;26,7;15,5;16,1;16,2;16,0;-9,6;39,6;1242
2023-09-02 04:00:00;13,9;101114;98;0,0096;0,0;0,7;158;1,1;0,25;-0,62;1;0;nan;35,7;32,7;35,2;26,8;15,4;16,0;16,2;16,0;-9,7;39,6;1242
2023-09-02 05:00:00;13,7;101138;99;0,0096;0,0;0,3;79;0,8;0,2;0,04;34;0;nan;35,6;32,6;35,1;26,8;15,3;15,9;16,2;16,0;-9,7;39,7;1241
2023-09-02 06:00:00;14,8;101192;100;0,0104;0,0;0,7;163;1,4;0,19;-0,63;104;0;nan;35,5;32,4;35,1;26,9;15,4;15,8;16,1;16,0;-9,8;39,5;1243
2023-09-02 07:00:00;16,8;101240;100;0,0118;0,0;1,2;161;1,9;0,4;-1,16;270;0;nan;35,3;32,3;35,0;26,9;15,7;15,8;16,1;16,0;-9,8;39,6;1242
2023-09-02 08:00:00;19,4;101260;95;0,0131;0,0;0,5;183;1,1;-0,02;-0,42;376;0;nan;35,4;32,3;35,0;27,0;16,3;15,9;16,1;16,0;-9,8;39,4;1244
2023-09-02 09:00:00;21,7;101264;84;0,0135;0,0;0,6;162;1,8;0,05;-0,17;513;0;nan;35,3;32,2;34,9;27,0;17,1;16,1;16,1;16,0;-9,9;39,3;1244
2023-09-02 10:00:00;22,0;101322;83;0,0135;0,0;1,1;20;2,5;0,34;0,93;485;0;nan;35,2;32,1;34,9;27,1;18,0;16,5;16,1;16,0;-9,9;38,5;1251
2023-09-02 11:00:00;22,9;101333;78;0,0134;0,0;0,9;336;2,4;-0,35;0,8;571;0;nan;35,0;32,0;34,8;27,1;18,7;16,9;16,1;16,0;-10,0;38,7;1250
2023-09-02 12:00:00;24,2;101366;71;0,0133;0,0;1,4;1;3,6;0,01;0,94;654;0;nan;34,7;31,9;34,8;27,1;19,9;17,3;16,1;16,0;-10,0;38,9;1248
2023-09-02 13:00:00;24,2;101410;69;0,0128;0,0;1,5;15;3,3;0,36;1,37;528;0;nan;34,5;31,7;34,7;27,2;20,8;17,9;16,2;16,0;-10,1;38,9;1248
2023-09-02 14:00:00;23,9;101450;72;0,0132;0,0;2,1;10;3,7;0,34;2,05;452;0;nan;34,3;31,6;34,7;27,2;20,7;18,4;16,3;16,0;-10,1;38,8;1249
2023-09-02 15:00:00;23,5;101462;74;0,0131;0,0;1,8;24;3,3;0,72;1,6;206;0;nan;34,0;31,5;34,7;27,3;20,4;18,6;16,5;16,0;-10,1;39,4;1244
2023-09-02 16:00:00;22,9;101490;77;0,0132;0,0;2,6;15;3,9;0,65;2,47;171;0;nan;33,9;31,4;34,6;27,3;20,0;18,7;16,6;16,0;-10,2;39,4;1243
2023-09-02 17:00:00;21,6;101544;84;0,0134;0,0;2,4;7;3,7;0,29;2,39;59;0;nan;33,8;31,3;34,6;27,3;19,8;18,7;16,8;16,0;-10,2;39,3;1245
2023-09-02 18:00:00;20,1;101628;87;0,0126;0,0;2,2;6;3,5;0,22;2,15;2;0;nan;33,7;31,2;34,5;27,4;19,4;18,7;16,8;16,0;-10,3;39,0;1247
2023-09-02 19:00:00;19,2;101712;88;0,0121;0,0;0,6;345;1,4;-0,14;0,5;0;0;nan;33,7;31,1;34,5;27,4;19,0;18,6;16,9;16,0;-10,4;38,9;1248
2023-09-02 20:00:00;17,8;101754;93;0,0117;0,0;0,4;179;0,7;0,0;-0,33;0;0;nan;33,6;31,0;34,5;27,4;18,7;18,5;17,0;16,0;-10,4;38,5;1251
2023-09-02 21:00:00;16,6;101804;97;0,0112;0,0;0,4;189;0,6;-0,06;-0,37;0;0;nan;33,5;30,9;34,4;27,5;18,4;18,3;17,1;16,0;-10,5;39,7;1241
2023-09-02 22:00:00;16,5;101832;98;0,0113;0,0;0,5;192;0,7;-0,1;-0,46;0;0;nan;33,2;30,9;34,4;27,5;18,1;18,2;17,1;16,0;-10,5;39,4;1244
2023-09-02 23:00:00;16,2;101867;98;0,0111;0,0;0,4;50;0,8;0,08;0,07;0;0;nan;33,2;30,8;34,4;27,5;17,9;18,0;17,1;16,0;-10,6;39,5;1243
2023-09-03 00:00:00;15,0;101845;99;0,0104;0,0;0,3;200;0,5;-0,06;-0,16;0;0;nan;33,3;30,7;34,3;27,6;17,5;17,9;17,1;16,0;-10,6;39,0;1247
2023-09-03 01:00:00;14,0;101880;98;0,0097;0,0;0,4;196;0,7;-0,09;-0,31;0;0;nan;33,2;30,7;34,3;27,6;17,1;17,7;17,1;16,1;-10,7;39,3;1245
2023-09-03 02:00:00;13,5;101900;98;0,0093;0,0;0,6;180;1,0;-0,0;-0,53;0;0;nan;33,2;30,7;34,3;27,6;16,8;17,5;17,1;16,1;-10,7;39,0;1247
2023-09-03 03:00:00;13,1;101928;99;0,0091;0,0;0,5;184;0,9;-0,03;-0,52;0;0;nan;33,2;30,6;34,2;27,6;16,5;17,3;17,1;16,1;-10,8;38,8;1249
2023-09-03 04:00:00;13,1;101912;99;0,0092;0,0;0,6;168;1,0;0,09;-0,42;0;0;nan;33,1;30,6;34,2;27,7;16,3;17,1;17,0;16,1;-10,8;38,9;1248
2023-09-03 05:00:00;13,1;101995;100;0,0092;0,0;0,4;188;0,8;-0,06;-0,42;29;0;nan;33,1;30,5;34,2;27,7;16,2;16,9;17,0;16,1;-10,8;38,3;1253
2023-09-03 06:00:00;14,0;102046;100;0,0098;0,0;0,5;186;0,9;-0,05;-0,48;117;0;nan;33,1;30,5;34,1;27,7;16,2;16,8;16,9;16,2;-10,9;38,2;1253
2023-09-03 07:00:00;15,2;102108;100;0,0106;0,0;0,4;89;0,9;0,22;0,0;220;0;nan;33,1;30,4;34,1;27,7;16,4;16,7;16,9;16,2;-10,9;38,0;1255
2023-09-03 08:00:00;17,4;102113;100;0,0121;0,0;0,8;103;1,8;0,79;-0,19;343;0;nan;33,1;30,4;34,1;27,7;16,9;16,8;16,8;16,2;-10,9;37,9;1256
2023-09-03 09:00:00;19,7;102088;89;0,0125;0,0;1,6;88;3,3;1,64;0,06;454;0;nan;33,0;30,4;34,1;27,8;17,5;16,9;16,8;16,2;-11,0;38,1;1255
2023-09-03 10:00:00;21,0;102090;76;0,0116;0,0;1,9;86;4,0;1,76;0,13;571;0;nan;33,0;30,3;34,0;27,8;18,2;17,1;16,8;16,2;-11,0;38,4;1252
2023-09-03 11:00:00;21,7;102092;72;0,0115;0,0;1,8;110;3,9;1,62;-0,6;563;0;nan;32,6;30,3;34,0;27,8;19,0;17,5;16,8;16,2;-11,0;38,1;1254
2023-09-03 12:00:00;22,2;102103;66;0,0108;0,0;1,9;131;3,9;1,4;-1,23;525;0;nan;32,6;30,2;34,0;27,8;20,0;18,0;16,9;16,2;-11,1;37,6;1259
2023-09-03 13:00:00;22,8;102112;62;0,0106;0,0;1,3;56;2,8;0,87;0,59;487;0;nan;32,5;30,1;34,0;27,8;20,3;18,3;16,9;16,2;-11,1;36,7;1267
2023-09-03 14:00:00;23,1;102110;59;0,0103;0,0;1,8;75;3,2;1,55;0,42;437;0;nan;32,5;30,1;33,9;27,8;20,3;18,6;17,0;16,2;-11,2;36,3;1270
2023-09-03 15:00:00;23,1;102113;56;0,0098;0,0;1,6;79;3,1;1,54;0,29;299;0;nan;32,3;30,0;33,9;27,8;20,1;18,8;17,1;16,2;-11,2;36,1;1273
2023-09-03 16:00:00;23,2;102123;57;0,0098;0,0;1,3;69;2,2;1,18;0,45;215;0;nan;31,9;29,9;33,9;27,8;19,8;18,8;17,2;16,2;-11,3;35,9;1275
2023-09-03 17:00:00;22,2;102118;62;0,0102;0,0;1,1;73;1,9;1,04;0,33;90;0;nan;32,0;29,9;33,8;27,8;19,5;18,8;17,3;16,2;-11,3;35,8;1275
2023-09-03 18:00:00;20,2;102130;75;0,0109;0,0;0,4;9;0,7;0,06;0,36;9;0;nan;32,1;29,8;33,8;27,8;19,2;18,7;17,4;16,2;-11,4;35,8;1275
2023-09-03 19:00:00;17,6;102132;87;0,0107;0,0;0,4;57;0,8;0,15;0,1;0;0;nan;32,0;29,6;33,8;27,8;18,7;18,6;17,4;16,3;-11,4;35,2;1281
2023-09-03 20:00:00;16,0;102110;91;0,0101;0,0;0,6;314;1,2;-0,18;0,17;0;0;nan;32,0;29,5;33,8;27,8;18,3;18,4;17,5;16,3;-11,5;34,8;1285
2023-09-03 21:00:00;14,3;102120;94;0,0094;0,0;0,6;191;1,2;-0,12;-0,61;0;0;nan;32,0;29,5;33,8;27,8;17,8;18,2;17,5;16,3;-11,5;34,5;1288
2023-09-03 22:00:00;13,2;102118;97;0,009;0,0;0,4;183;0,5;-0,01;-0,25;0;0;nan;31,9;29,4;33,7;27,9;17,3;18,0;17,5;16,3;-11,6;34,4;1289
2023-09-03 23:00:00;12,9;102102;97;0,0088;0,0;0,4;169;0,7;0,07;-0,34;0;0;nan;32,0;29,4;33,7;27,9;16,9;17,7;17,5;16,3;-11,6;34,4;1289
2023-09-04 00:00:00;12,2;102078;98;0,0086;0,0;0,6;183;0,8;-0,03;-0,55;0;0;nan;32,1;29,3;33,7;27,9;16,5;17,5;17,4;16,3;-11,7;34,0;1293
2023-09-04 01:00:00;11,6;102062;98;0,0082;0,0;0,6;189;0,8;-0,08;-0,54;0;0;nan;31,9;29,3;33,7;27,9;16,1;17,2;17,4;16,3;-11,7;33,8;1295
2023-09-04 02:00:00;11,3;102038;98;0,008;0,0;0,7;180;1,0;0,0;-0,41;0;0;nan;31,9;29,2;33,6;27,9;15,8;17,0;17,3;16,3;-11,8;33,7;1296
2023-09-04 03:00:00;11,8;102023;96;0,0081;0,0;0,5;246;1,1;-0,47;-0,21;0;0;nan;31,9;29,2;33,6;27,9;15,5;16,8;17,3;16,4;-11,8;33,6;1297
2023-09-04 04:00:00;12,8;102005;96;0,0087;0,0;0,8;113;1,6;0,52;-0,22;2;0;nan;32,0;29,1;33,6;27,9;15,4;16,5;17,2;16,4;-11,8;33,5;1299
2023-09-04 05:00:00;11,8;101998;99;0,0084;0,0;0,5;173;0,9;0,04;-0,3;50;0;nan;31,9;29,1;33,6;27,9;15,3;16,4;17,1;16,4;-11,9;33,6;1297
2023-09-04 06:00:00;15,1;101966;100;0,0105;0,0;1,8;121;3,1;1,46;-0,88;196;0;nan;32,1;29,1;33,6;27,9;15,5;16,3;17,0;16,4;-11,9;33,3;1301
2023-09-04 07:00:00;17,1;101927;92;0,011;0,0;2,1;119;3,2;1,8;-0,98;318;0;nan;32,1;29,0;33,5;27,9;16,1;16,2;16,9;16,4;-11,9;33,7;1296
2023-09-04 08:00:00;18,4;101900;86;0,0111;0,0;2,6;84;4,9;2,6;0,29;444;0;nan;32,0;29,0;33,5;27,9;16,7;16,4;16,9;16,4;-12,0;33,3;1300
2023-09-04 09:00:00;20,5;101868;74;0,011;0,0;2,7;89;5,6;2,7;0,06;584;0;nan;31,9;29,0;33,5;27,9;17,5;16,6;16,8;16,4;-12,0;33,5;1299
2023-09-04 10:00:00;22,0;101832;67;0,0109;0,0;3,3;93;5,3;3,34;-0,18;641;0;nan;31,8;28,9;33,5;27,9;18,2;16,9;16,8;16,4;-12,1;33,0;1303
2023-09-04 11:00:00;23,7;101798;60;0,0108;0,0;3,3;118;5,0;2,87;-1,54;646;0;nan;31,8;28,9;33,4;27,9;19,0;17,3;16,8;16,4;-12,1;32,8;1305
2023-09-04 12:00:00;24,0;101766;57;0,0104;0,0;3,9;95;5,9;3,81;-0,31;602;0;nan;31,5;28,9;33,4;27,9;19,6;17,7;16,8;16,4;-12,2;33,2;1302
2023-09-04 13:00:00;25,0;101718;54;0,0106;0,0;3,1;102;5,6;3,02;-0,66;540;0;nan;31,4;28,8;33,4;27,9;20,1;18,1;16,9;16,4;-12,2;33,4;1299
2023-09-04 14:00:00;25,8;101672;48;0,0099;0,0;3,4;96;6,1;3,35;-0,36;498;0;nan;31,1;28,8;33,4;27,9;20,3;18,5;17,0;16,4;-12,3;33,3;1301
2023-09-04 15:00:00;26,2;101622;48;0,01;0,0;3,1;91;6,0;3,1;-0,04;358;0;nan;31,0;28,7;33,3;27,9;20,0;18,7;17,1;16,4;-12,3;33,0;1303
2023-09-04 16:00:00;25,8;101608;48;0,0099;0,0;2,0;88;3,6;1,94;0,06;177;0;nan;30,9;28,6;33,3;27,9;19,7;18,7;17,2;16,4;-12,4;32,6;1307
2023-09-04 17:00:00;24,9;101590;52;0,01;0,0;1,5;76;2,5;1,45;0,37;76;0;nan;30,9;28,6;33,3;27,9;19,5;18,7;17,3;16,4;-12,5;32,7;1307
2023-09-04 18:00:00;22,8;101595;58;0,0099;0,0;0,8;89;1,5;0,77;0,01;6;0;nan;30,6;28,5;33,3;27,9;19,2;18,7;17,4;16,4;-12,5;32,7;1307
2023-09-04 19:00:00;21,3;101586;60;0,0094;0,0;1,4;87;2,7;1,4;0,07;0;0;nan;30,5;28,5;33,3;27,9;18,9;18,6;17,4;16,4;-12,5;32,4;1310
2023-09-04 20:00:00;21,5;101516;58;0,0091;0,0;2,2;108;4,2;2,12;-0,69;0;0;nan;30,4;28,4;33,3;27,9;18,5;18,4;17,5;16,4;-12,6;32,2;1312
2023-09-04 21:00:00;22,1;101450;53;0,0087;0,0;3,8;122;6,3;3,25;-2,01;0;0;nan;30,3;28,4;33,2;27,9;18,2;18,3;17,5;16,4;-12,6;31,9;1316
2023-09-04 22:00:00;21,2;101396;56;0,0086;0,0;3,4;126;5,3;2,73;-1,95;0;0;nan;30,2;28,3;33,2;27,9;17,9;18,1;17,5;16,4;-12,7;31,7;1318
2023-09-04 23:00:00;19,8;101355;60;0,0086;0,0;2,5;137;4,6;1,64;-1,78;0;0;nan;30,1;28,3;33,2;27,9;17,6;18,0;17,5;16,4;-12,8;31,7;1317
2023-09-05 00:00:00;18,3;101346;66;0,0085;0,0;0,9;110;1,8;0,49;-0,18;0;0;nan;30,1;28,2;33,2;27,9;17,4;17,8;17,5;16,4;-12,8;31,8;1317
2023-09-05 01:00:00;15,5;101366;79;0,0086;0,0;0,7;148;1,2;0,26;-0,43;0;0;nan;30,2;28,2;33,2;27,9;17,1;17,6;17,4;16,4;-12,9;31,7;1318
2023-09-05 02:00:00;15,1;101348;82;0,0087;0,0;0,7;113;1,1;0,62;-0,26;0;0;nan;30,1;28,1;33,1;27,9;16,8;17,5;17,4;16,4;-12,9;31,8;1317
2023-09-05 03:00:00;16,0;101337;77;0,0087;0,0;1,1;75;1,7;1,08;0,29;0;0;nan;30,1;28,1;33,1;27,9;16,5;17,3;17,4;16,4;-13,0;32,0;1314
2023-09-05 04:00:00;16,9;101325;73;0,0087;0,0;3,1;83;5,2;3,1;0,39;0;0;nan;30,1;28,1;33,1;27,9;16,4;17,1;17,3;16,4;-13,0;31,6;1318
2023-09-05 05:00:00;17,3;101332;72;0,0088;0,0;3,9;88;6,2;3,89;0,13;42;0;nan;29,9;28,0;33,1;27,9;16,1;16,9;17,2;16,4;-13,1;31,8;1317
2023-09-05 06:00:00;18,8;101330;70;0,0093;0,0;2,1;94;3,0;2,05;-0,13;168;0;nan;29,8;28,0;33,1;27,9;16,3;16,8;17,1;16,4;-13,1;31,6;1319
2023-09-05 07:00:00;21,1;101296;64;0,0099;0,0;2,1;112;3,4;1,8;-0,74;319;0;nan;30,0;27,9;33,0;27,9;16,8;16,8;17,0;16,4;-13,2;31,5;1321
2023-09-05 08:00:00;23,3;101260;54;0,0096;0,0;3,9;119;6,2;3,4;-1,88;468;0;nan;29,8;27,9;33,0;27,9;17,4;16,9;17,0;16,5;-13,2;31,2;1323
2023-09-05 09:00:00;24,5;101250;52;0,0099;0,0;4,2;123;6,6;3,5;-2,23;565;0;nan;29,7;27,8;33,0;27,9;17,9;17,1;17,0;16,5;-13,3;30,8;1328
2023-09-05 10:00:00;26,1;101230;50;0,0105;0,0;4,1;116;5,6;3,62;-1,74;629;0;nan;29,7;27,8;33,0;27,9;18,6;17,4;16,9;16,4;-13,3;30,7;1329
2023-09-05 11:00:00;28,0;101203;47;0,0109;0,0;3,0;120;5,2;2,6;-1,52;652;0;nan;29,5;27,8;32,9;27,8;19,4;17,7;16,9;16,4;-13,4;30,1;1336
2023-09-05 12:00:00;29,0;101178;45;0,0112;0,0;3,3;105;5,5;3,17;-0,84;605;0;nan;29,3;27,7;32,9;27,8;20,2;18,1;17,0;16,4;-13,5;30,3;1334
2023-09-05 13:00:00;29,4;101157;45;0,0114;0,0;3,5;97;6,3;3,42;-0,43;519;0;nan;29,2;27,7;32,9;27,8;21,0;18,6;17,0;16,4;-13,6;30,6;1331
2023-09-05 14:00:00;29,7;101128;43;0,0111;0,0;3,2;98;5,5;3,12;-0,44;470;0;nan;28,9;27,6;32,8;27,8;21,3;19,0;17,1;16,4;-13,6;30,7;1329
2023-09-05 15:00:00;29,6;101112;42;0,0107;0,0;3,3;100;5,8;3,19;-0,55;353;0;nan;28,7;27,6;32,8;27,8;21,1;19,3;17,2;16,4;-13,7;30,4;1333
2023-09-05 16:00:00;29,2;101127;41;0,0104;0,0;2,5;94;5,6;2,46;-0,19;223;0;nan;28,5;27,5;32,8;27,8;20,8;19,4;17,4;16,4;-13,8;30,3;1334
2023-09-05 17:00:00;27,6;101165;45;0,0102;0,0;1,5;93;2,9;1,54;-0,08;70;0;nan;28,6;27,5;32,8;27,8;20,5;19,4;17,5;16,4;-13,9;30,0;1338
2023-09-05 18:00:00;24,8;101202;52;0,01;0,0;1,1;77;2,2;1,02;0,24;2;0;nan;28,5;27,5;32,8;27,8;20,2;19,4;17,6;16,4;-13,9;29,6;1343
2023-09-05 19:00:00;23,6;101228;56;0,01;0,0;1,5;107;2,7;1,37;-0,43;0;0;nan;28,5;27,4;32,8;27,8;19,8;19,3;17,6;16,4;-14,0;29,7;1341
2023-09-05 20:00:00;22,1;101238;61;0,01;0,0;1,3;148;2,3;0,64;-1,04;0;0;nan;28,4;27,4;32,8;27,8;19,4;19,1;17,7;16,5;-14,1;29,5;1344
2023-09-05 21:00:00;21,5;101264;65;0,0103;0,0;2,0;129;3,5;1,54;-1,26;0;0;nan;28,4;27,3;32,7;27,8;19,1;19,0;17,7;16,5;-14,1;29,4;1345
2023-09-05 22:00:00;21,4;101275;64;0,0101;0,0;2,2;102;3,4;2,15;-0,44;0;0;nan;28,3;27,3;32,7;27,8;18,8;18,8;17,8;16,5;-14,2;29,4;1345
2023-09-05 23:00:00;19,2;101312;72;0,0099;0,0;1,1;203;2,0;-0,28;-0,65;0;0;nan;28,2;27,2;32,7;27,8;18,5;18,6;17,8;16,5;-14,3;29,1;1348
2023-09-06 00:00:00;16,4;101340;84;0,0096;0,0;0,8;171;1,3;0,1;-0,67;0;0;nan;28,2;27,2;32,7;27,8;18,3;18,6;17,8;16,5;-14,3;28,9;1351
2023-09-06 01:00:00;15,4;101338;87;0,0094;0,0;0,7;180;1,1;0,0;-0,6;0;0;nan;28,2;27,1;32,7;27,8;17,6;18,2;17,8;16,5;-14,4;29,0;1350
2023-09-06 02:00:00;14,4;101328;90;0,0091;0,0;0,8;191;1,3;-0,13;-0,66;0;0;nan;28,1;27,1;32,7;27,8;17,2;18,1;17,7;16,5;-14,4;29,2;1348
2023-09-06 03:00:00;13,4;101332;94;0,0089;0,0;0,4;316;0,8;-0,07;0,07;0;0;nan;28,0;27,1;32,7;27,8;16,9;17,8;17,7;16,5;-14,5;28,9;1352
2023-09-06 04:00:00;12,7;101350;95;0,0086;0,0;0,4;236;0,8;-0,16;-0,11;0;0;nan;28,1;27,0;32,6;27,8;16,5;17,5;17,6;16,6;-14,6;28,6;1356
2023-09-06 05:00:00;13,7;101362;97;0,0094;0,0;0,5;311;1,0;-0,29;0,25;73;0;nan;28,1;27,0;32,6;27,8;16,2;17,3;17,5;16,6;-14,6;28,7;1355
2023-09-06 06:00:00;17,5;101338;89;0,011;0,0;0,6;189;1,3;-0,05;-0,31;184;0;nan;27,9;27,0;32,6;27,8;16,3;17,1;17,5;16,6;-14,6;28,7;1354
2023-09-06 07:00:00;20,3;101325;76;0,0112;0,0;1,4;85;2,6;1,35;0,12;319;0;nan;28,0;26,9;32,6;27,8;16,9;17,1;17,4;16,6;-14,7;28,7;1354
2023-09-06 08:00:00;21,8;101320;70;0,0113;0,0;2,0;80;3,3;1,93;0,34;457;0;nan;28,0;26,9;32,6;27,8;17,7;17,2;17,3;16,6;-14,8;29,1;1349
2023-09-06 09:00:00;24,3;101328;57;0,0106;0,0;2,9;115;5,0;2,53;-1,17;561;0;nan;27,8;26,9;32,5;27,8;18,4;17,4;17,3;16,6;-14,9;29,0;1351
2023-09-06 10:00:00;26,4;101314;50;0,0107;0,0;2,9;110;5,0;2,62;-0,97;641;0;nan;27,7;26,8;32,5;27,8;19,1;17,7;17,3;16,6;-14,9;29,3;1347
2023-09-06 11:00:00;28,1;101292;41;0,0095;0,0;3,1;104;4,9;2,95;-0,71;644;0;nan;27,5;26,8;32,5;27,8;19,8;18,1;17,2;16,6;-15,0;29,4;1345
2023-09-06 12:00:00;29,0;101275;38;0,0093;0,0;3,3;114;5,8;2,99;-1,32;621;0;nan;27,7;26,8;32,5;27,7;20,4;18,5;17,3;16,6;-15,1;28,9;1352
2023-09-06 13:00:00;29,3;101257;37;0,0094;0,0;3,2;102;5,8;3,16;-0,67;523;0;nan;27,2;26,7;32,5;27,7;21,0;18,9;17,3;16,6;-15,2;28,7;1354
2023-09-06 14:00:00;29,6;101248;38;0,0096;0,0;3,2;99;5,7;3,13;-0,5;491;0;nan;27,1;26,7;32,4;27,7;21,3;19,2;17,4;16,6;-15,3;28,1;1362
2023-09-06 15:00:00;29,4;101233;39;0,0098;0,0;2,8;98;4,5;2,79;-0,38;352;0;nan;27,1;26,7;32,4;27,7;21,1;19,5;17,5;16,6;-15,4;28,2;1361
2023-09-06 16:00:00;28,8;101247;39;0,0095;0,0;2,1;109;3,7;1,94;-0,67;205;0;nan;27,1;26,6;32,4;27,7;20,8;19,6;17,6;16,6;-15,4;28,5;1357
2023-09-06 17:00:00;27,0;101250;46;0,0101;0,0;1,2;97;2,1;1,21;-0,16;65;0;nan;27,0;26,6;32,4;27,7;20,5;19,6;17,7;16,6;-15,5;28,3;1360
2023-09-06 18:00:00;22,1;101292;65;0,0106;0,0;0,6;155;0,9;0,22;-0,46;3;0;nan;27,0;26,6;32,4;27,7;20,1;19,5;17,8;16,6;-15,6;28,9;1352
2023-09-06 19:00:00;20,8;101330;69;0,0105;0,0;0,9;173;1,9;0,03;-0,21;0;0;nan;26,9;26,5;32,4;27,7;19,6;19,3;17,9;16,6;-15,7;29,4;1345
2023-09-06 20:00:00;19,4;101358;75;0,0103;0,0;1,1;169;1,4;0,21;-1,08;0;0;nan;26,8;26,5;32,3;27,7;19,1;19,2;17,9;16,6;-15,7;30,1;1336
2023-09-06 21:00:00;18,4;101366;78;0,0101;0,0;1,1;172;1,5;0,15;-1,04;0;0;nan;26,6;26,5;32,3;27,7;18,7;19,0;17,9;16,6;-15,9;30,6;1331
2023-09-06 22:00:00;15,9;101388;88;0,0098;0,0;0,6;177;0,9;0,03;-0,61;0;0;nan;26,6;26,4;32,3;27,7;18,3;18,7;17,9;16,6;-15,9;30,4;1333
2023-09-06 23:00:00;14,6;101375;93;0,0095;0,0;0,5;196;0,8;-0,1;-0,35;0;0;nan;26,6;26,4;32,3;27,7;17,8;18,5;17,9;16,7;-16,0;30,6;1331
2023-09-07 00:00:00;14,0;101332;96;0,0094;0,0;0,4;224;0,6;-0,26;-0,27;0;0;nan;26,6;26,4;32,3;27,7;17,4;18,3;17,9;16,7;-16,0;30,7;1329
2023-09-07 01:00:00;13,3;101298;96;0,0091;0,0;0,2;193;0,5;-0,03;-0,16;0;0;nan;26,6;26,3;32,3;27,7;17,0;18,0;17,8;16,7;-16,1;30,7;1330
2023-09-07 02:00:00;12,9;101287;97;0,0089;0,0;0,5;181;0,7;-0,01;-0,38;0;0;nan;26,4;26,3;32,3;27,7;16,7;17,7;17,8;16,7;-16,1;29,9;1339
2023-09-07 03:00:00;12,6;101273;97;0,0087;0,0;0,6;173;1,0;0,07;-0,58;0;0;nan;26,3;26,3;32,3;27,7;16,3;17,5;17,7;16,7;-16,2;29,9;1339
2023-09-07 04:00:00;12,0;101270;97;0,0083;0,0;0,5;208;1,0;-0,2;-0,38;0;0;nan;26,2;26,2;32,2;27,7;16,0;17,3;17,6;16,7;-16,3;30,0;1338
2023-09-07 05:00:00;12,9;101270;92;0,0084;0,0;0,7;96;0,9;0,69;-0,07;8;0;nan;26,2;26,2;32,2;27,7;15,8;17,0;17,6;16,7;-16,4;29,6;1343
2023-09-07 06:00:00;17,3;101273;92;0,0113;0,0;0,7;148;1,6;0,22;-0,35;158;0;nan;26,4;26,2;32,2;27,7;16,1;16,9;17,5;16,7;-16,4;29,7;1342
2023-09-07 07:00:00;20,1;101280;79;0,0115;0,0;1,3;115;2,3;1,19;-0,55;292;0;nan;26,6;26,2;32,2;27,7;16,7;16,9;17,4;16,7;-16,4;29,7;1341
2023-09-07 08:00:00;22,6;101267;67;0,0114;0,0;2,2;125;4,2;1,82;-1,28;449;0;nan;26,2;26,1;32,2;27,7;17,9;17,2;17,3;16,7;-16,6;29,5;1344
2023-09-07 09:00:00;24,3;101238;60;0,0112;0,0;2,6;112;4,2;2,35;-0,96;557;0;nan;26,1;26,1;32,1;27,7;18,8;17,5;17,2;16,7;-16,6;29,7;1342
2023-09-07 10:00:00;25,6;101197;58;0,0118;0,0;2,9;86;5,2;2,85;0,19;615;0;nan;26,0;26,1;32,1;27,6;19,6;17,9;17,2;16,7;-16,7;29,4;1345
2023-09-07 11:00:00;27,3;101157;53;0,0118;0,0;3,3;100;5,9;3,24;-0,57;634;0;nan;25,9;26,1;32,1;27,6;20,1;18,2;17,2;16,7;-16,8;29,6;1343
2023-09-07 12:00:00;28,7;101128;48;0,0118;0,0;3,5;102;6,1;3,39;-0,72;622;0;nan;25,9;26,1;32,1;27,6;20,6;18,5;17,3;16,7;-16,8;29,6;1343
2023-09-07 13:00:00;29,2;101096;47;0,0117;0,0;3,4;102;5,4;3,26;-0,69;515;0;nan;25,8;26,0;32,1;27,6;21,1;18,8;17,3;16,7;-16,9;29,7;1341
2023-09-07 14:00:00;29,7;101078;43;0,0111;0,0;3,5;99;6,1;3,35;-0,52;476;0;nan;25,6;26,0;32,1;27,6;21,5;19,3;17,4;16,7;-17,0;30,3;1335
2023-09-07 15:00:00;29,8;101070;40;0,0105;0,0;3,1;103;5,0;2,97;-0,71;354;0;nan;25,5;26,0;32,0;27,6;21,2;19,5;17,5;16,7;-17,1;30,3;1334
2023-09-07 16:00:00;29,3;101062;41;0,0104;0,0;2,4;95;4,0;2,39;-0,2;211;0;nan;25,4;26,0;32,0;27,6;20,9;19,6;17,7;16,7;-17,2;30,3;1334
2023-09-07 17:00:00;27,4;101096;47;0,0106;0,0;1,5;92;2,4;1,46;-0,05;59;0;nan;25,5;25,9;32,0;27,6;20,7;19,6;17,8;16,7;-17,4;30,4;1333
2023-09-07 18:00:00;25,1;101125;53;0,0104;0,0;1,2;94;2,1;1,18;-0,08;2;0;nan;25,6;25,9;32,0;27,6;20,3;19,6;17,9;16,7;-17,4;30,0;1337
2023-09-07 19:00:00;21,5;101156;65;0,0102;0,0;0,8;173;1,3;0,07;-0,61;0;0;nan;25,5;25,9;32,0;27,6;19,9;19,5;17,9;16,7;-17,5;29,0;1350
2023-09-07 20:00:00;19,3;101184;74;0,0103;0,0;0,7;174;1,2;0,06;-0,58;0;0;nan;25,1;25,9;32,0;27,6;19,4;19,3;18,0;16,7;-17,6;28,6;1356
2023-09-07 21:00:00;18,6;101188;77;0,0102;0,0;0,9;177;1,2;0,04;-0,83;0;0;nan;25,2;25,8;32,0;27,6;19,0;19,1;18,0;16,7;-17,6;28,4;1358
2023-09-07 22:00:00;17,3;101184;83;0,0101;0,0;0,6;174;1,0;0,06;-0,52;0;0;nan;25,2;25,8;32,0;27,6;18,6;18,9;18,0;16,7;-17,7;28,2;1360
2023-09-07 23:00:00;16,8;101165;86;0,0101;0,0;0,6;195;1,1;-0,15;-0,56;0;0;nan;25,2;25,8;31,9;27,6;18,2;18,7;18,0;16,7;-17,8;28,2;1361
2023-09-08 00:00:00;16,4;101136;87;0,01;0,0;0,9;214;1,5;-0,5;-0,74;0;0;nan;25,1;25,7;31,9;27,6;17,9;18,5;18,0;16,8;-17,8;28,5;1357
2023-09-08 01:00:00;16,5;101130;86;0,0099;0,0;0,7;211;1,5;-0,3;-0,5;0;0;nan;25,2;25,7;31,9;27,6;17,6;18,3;18,0;16,8;-18,0;28,1;1362
2023-09-08 02:00:00;16,8;101110;84;0,0099;0,0;1,1;159;1,5;0,38;-0,98;0;0;nan;25,2;25,7;31,9;27,6;17,4;18,1;17,9;16,8;-18,0;28,6;1356
2023-09-08 03:00:00;15,4;101100;88;0,0095;0,0;0,6;185;1,0;-0,04;-0,51;0;0;nan;25,1;25,7;31,9;27,6;17,3;18,0;17,9;16,8;-18,0;28,3;1359
2023-09-08 04:00:00;14,0;101090;93;0,0092;0,0;0,4;232;0,7;-0,19;-0,15;0;0;nan;24,8;25,6;31,9;27,6;16,9;17,7;17,9;16,8;-18,2;28,8;1354
2023-09-08 05:00:00;13,6;101090;94;0,009;0,0;0,6;206;0,9;-0,24;-0,51;6;0;nan;24,8;25,6;31,9;27,6;16,6;17,6;17,7;16,8;-18,1;28,9;1352